Location: Wapato
(46.4478°N, 120.4212°W)
Time: 01:15:28
(UTC+00:00)

Vanguard 2 - Visible Passes

Search period start: 14 May 2026 00:00
Search period end: 24 May 2026 00:00
Orbit: 553 x 2895 km, 32.9° (Epoch: 13 May)

Date Brightness Start Highest point End Pass type
(mag) Time Alt. Az. Time Alt. Az. Time Alt. Az.
14 May 11.0 08:10:09 22° SSE 08:11:41 22° SE 08:23:04 10° E visible
14 May 10.6 10:10:59 22° SSW 10:21:17 40° SSE 10:34:43 10° E visible
15 May 10.9 08:20:08 26° SSE 08:22:48 27° SE 08:35:28 10° E visible
15 May 10.6 10:20:59 20° SW 10:32:39 44° SSE 10:46:24 10° E visible
16 May 11.5 06:29:13 10° ESE 06:29:13 10° ESE 06:29:49 10° ESE visible
16 May 10.7 08:30:03 29° S 08:33:57 31° SSE 08:47:35 10° E visible
16 May 10.5 10:30:52 17° SW 10:44:03 47° S 10:58:02 10° ESE visible
17 May 11.3 06:39:03 15° ESE 06:39:03 15° ESE 06:44:49 10° ESE visible
17 May 10.6 08:39:52 30° S 08:45:08 36° SSE 08:59:31 10° E visible
17 May 10.5 10:40:40 14° WSW 10:55:27 49° S 11:09:36 10° ESE visible
18 May 11.0 06:48:45 20° SE 06:48:45 20° SE 06:58:03 10° E visible
18 May 10.6 08:49:33 30° SSW 08:56:23 40° SSE 09:11:18 10° E visible
18 May 10.5 10:50:28 10° WSW 11:06:53 50° S 11:21:07 10° ESE visible
19 May 10.8 06:58:18 24° SE 06:58:19 24° SE 07:10:38 10° E visible
19 May 10.5 08:59:06 28° SSW 09:07:40 44° SSE 09:22:59 10° E visible
19 May 10.5 11:01:51 10° WSW 11:18:17 50° S 11:32:34 10° ESE visible
20 May 10.6 07:07:39 28° SSE 07:09:21 29° SE 07:22:50 10° E visible
20 May 10.4 09:08:25 23° SW 09:18:59 47° SSE 09:34:37 10° E visible
20 May 10.5 11:13:19 10° WSW 11:29:40 49° S 11:43:57 10° ESE visible
21 May 11.2 05:15:57 11° ESE 05:15:57 11° ESE 05:17:14 10° ESE visible
21 May 10.5 07:16:40 30° S 07:20:25 33° SSE 07:34:49 10° E visible
21 May 10.4 09:17:24 17° SW 09:30:20 49° S 09:46:11 10° ESE visible
21 May 10.5 11:24:50 10° WSW 11:41:02 48° SSW 11:55:16 10° SE visible
22 May 10.9 05:24:18 16° SE 05:24:18 16° SE 05:31:32 10° ESE visible
22 May 10.4 07:24:56 27° SSW 07:31:34 37° SSE 07:46:37 10° E visible
22 May 10.4 09:26:25 10° WSW 09:41:43 50° S 09:57:41 10° ESE visible
22 May 10.5 11:36:25 10° W 11:52:22 45° SSW 12:06:28 10° SE visible
23 May 10.7 05:25:56 10° S 05:34:20 20° SE 05:44:29 10° E visible
23 May 10.3 07:29:54 10° SW 07:42:45 41° SSE 07:58:20 10° E visible
23 May 10.4 09:37:48 10° WSW 09:53:07 51° S 10:09:08 10° ESE visible
